Starlink 30209

operational
NORAD ID: 57307 Int'l Des: 2023-096 Owner: SPXS Country: US Constellation: starlink
LEOCIRCULAR

About Starlink 30209

Description loading...

Live Position

Loading 3D Globe...

Upcoming Passes

Altitude History

Altitude vs Time

uPlot chart will show altitude changes over time

Two-Line Element Set

1 57307U 23096T 25341.00002315 .00239412 00000-0 53999-2 0 9996
2 57307 42.9861 333.0154 0029186 106.7788 137.3233 15.41170932 5871
Epoch: Dec 7, 2025 • Age: 8 hours

Current Status

Altitude 450.0 km
Velocity 7.64 km/s
Sub-Earth Point -19.62°S, 17.17°W
Launch Date Jul 10, 2023
Age 2.4 years
Type internet

Technical Details

Classification Payload
Mass 730.00 kg
Dry Mass 700.00 kg
Total Mass 730.00 kg
Length 0.30 m
Diameter 4.10 m
Span 29.00 m
Shape Box + pan
Manufacturer SPXS
Bus Type Starlink V2M
Phase Status In Orbit
Owner/State SPXS/US

Large Constellations

Loading constellations...